NOAA 15

Last updated on Thu Jul 03 2025 00:02:22 GMT+0000 (Coordinated Universal Time)

1 25338U 98030A 25183.59972260 .00000173 00000+0 88710-4 0 9998 2 25338 98.5339 208.1758 0009066 294.8125 65.2113 14.26990895411437
UTC large
Height (km)
Speed (km/s)
/
Latitude / Longitude
Inclination (degrees)
Orbital Period (minutes)
Azimuth
Elevation
Range (km)
Doppler Factor

Next 0 passes for location: London (51.5072 / 0.1276)

Sorry there are no passes over London.